TimeEST,TemperatureF,Dew PointF,Humidity,Sea Level PressureIn,VisibilityMPH,Wind Direction,Wind SpeedMPH,Gust SpeedMPH,PrecipitationIn,Events,Conditions,WindDirDegrees,DateUTC
12:53 AM,23.0,19.9,88,30.00,10.0,SSE,3.5,-,N/A,,Clear,160,2013-02-15 05:53:00
1:53 AM,24.1,21.0,88,30.01,10.0,Calm,Calm,-,N/A,,Clear,0,2013-02-15 06:53:00
2:53 AM,23.0,21.0,92,30.00,8.0,Calm,Calm,-,N/A,,Clear,0,2013-02-15 07:53:00
3:53 AM,23.0,21.0,92,29.99,7.0,SE,3.5,-,N/A,,Clear,140,2013-02-15 08:53:00
4:53 AM,21.9,21.0,96,30.00,5.0,SSW,4.6,-,N/A,,Partly Cloudy,200,2013-02-15 09:53:00
5:39 AM,30.2,30.2,100,30.00,4.0,South,4.6,-,N/A,,Mostly Cloudy,190,2013-02-15 10:39:00
5:53 AM,30.9,30.9,100,30.00,3.0,South,5.8,-,N/A,,Overcast,180,2013-02-15 10:53:00
6:22 AM,30.2,30.2,100,29.99,3.0,South,4.6,-,N/A,,Overcast,190,2013-02-15 11:22:00
6:44 AM,30.2,30.2,100,29.99,2.0,South,4.6,-,N/A,,Partly Cloudy,190,2013-02-15 11:44:00
6:53 AM,30.0,30.0,100,30.00,1.2,South,3.5,-,N/A,,Clear,190,2013-02-15 11:53:00
7:08 AM,32.0,30.2,93,30.00,2.0,South,5.8,-,N/A,,Partly Cloudy,190,2013-02-15 12:08:00
7:21 AM,33.8,32.0,93,30.01,2.5,South,4.6,-,N/A,,Mostly Cloudy,190,2013-02-15 12:21:00
7:40 AM,33.8,32.0,93,30.01,2.5,South,8.1,-,N/A,,Scattered Clouds,180,2013-02-15 12:40:00
7:53 AM,33.1,32.0,96,30.01,3.0,South,8.1,-,N/A,,Scattered Clouds,180,2013-02-15 12:53:00
8:53 AM,37.0,32.0,82,30.01,5.0,SSE,5.8,-,N/A,,Haze,160,2013-02-15 13:53:00
9:53 AM,41.0,30.9,67,30.01,7.0,SSW,8.1,-,N/A,,Clear,210,2013-02-15 14:53:00
10:53 AM,44.1,30.9,60,30.00,9.0,SSW,8.1,20.7,N/A,,Clear,210,2013-02-15 15:53:00
11:53 AM,46.9,30.9,54,29.97,10.0,SSW,13.8,19.6,N/A,,Clear,210,2013-02-15 16:53:00
12:53 PM,48.0,32.0,54,29.94,10.0,SSW,9.2,19.6,N/A,,Clear,200,2013-02-15 17:53:00
1:53 PM,48.9,32.0,52,29.93,10.0,South,13.8,23.0,N/A,,Clear,170,2013-02-15 18:53:00
2:53 PM,48.0,34.0,58,29.92,10.0,South,11.5,18.4,N/A,,Clear,190,2013-02-15 19:53:00
3:53 PM,48.0,34.0,58,29.91,10.0,SSW,11.5,-,N/A,,Clear,200,2013-02-15 20:53:00
4:53 PM,46.0,34.0,63,29.92,10.0,South,9.2,-,N/A,,Clear,190,2013-02-15 21:53:00
5:53 PM,42.1,34.0,73,29.92,10.0,South,6.9,-,N/A,,Clear,180,2013-02-15 22:53:00
6:53 PM,39.9,35.1,83,29.94,10.0,South,4.6,-,N/A,,Clear,180,2013-02-15 23:53:00
7:53 PM,39.0,35.1,86,29.94,10.0,SSE,3.5,-,N/A,,Clear,160,2013-02-16 00:53:00
8:53 PM,37.0,34.0,89,29.95,9.0,SSE,4.6,-,N/A,,Clear,160,2013-02-16 01:53:00
9:53 PM,32.0,30.9,96,29.96,6.0,NNW,5.8,-,N/A,,Clear,340,2013-02-16 02:53:00
10:53 PM,30.0,28.9,96,29.95,2.5,Calm,Calm,-,N/A,,Clear,0,2013-02-16 03:53:00
11:01 PM,32.0,30.2,93,29.94,3.0,Calm,Calm,-,N/A,,Clear,0,2013-02-16 04:01:00
11:10 PM,30.2,30.2,100,29.94,2.5,Calm,Calm,-,N/A,,Clear,0,2013-02-16 04:10:00
11:20 PM,30.2,30.2,100,29.95,1.5,Calm,Calm,-,N/A,,Clear,0,2013-02-16 04:20:00
11:46 PM,28.4,28.4,100,29.94,1.0,Calm,Calm,-,N/A,,Mist,0,2013-02-16 04:46:00
11:53 PM,30.9,30.0,96,29.94,1.0,Calm,Calm,-,N/A,,Mist,0,2013-02-16 04:53:00
11:58 PM,32.0,30.2,93,29.94,2.0,Calm,Calm,-,N/A,,Partly Cloudy,0,2013-02-16 04:58:00